When you browse on this site, cookies collect data to enhance your experience and personalize the content and advertising you see.
Visit our Privacy Policy to learn more. By continuing to use the site, you agree to this use of cookies and data.
  • en Suisse
  • Liste des pays
  • À 7 jours
  • Température de l'eau
  • Carte météo
  • Widgets météo
  • user-avatar
    Se connecter

    Météo par heure à Lewis

    Ce jour, 23 Septembre, Lundi

    Heure Température Précipitation Vent Pression Humidité
    00:00 +16°C° 0 mm 3 m/s 741 mmHg 93%
    01:00 +16°C° 0.5 mm 3 m/s 741 mmHg 94%
    02:00 +16°C° 0.5 mm 3 m/s 741 mmHg 95%
    03:00 +14°C° 0.5 mm 4 m/s 741 mmHg 96%
    04:00 +14°C° 0 mm 3 m/s 741 mmHg 96%
    05:00 +14°C° 0 mm 3 m/s 741 mmHg 97%
    06:00 +14°C° 0 mm 3 m/s 741 mmHg 98%
    07:00 +15°C° 0.2 mm 2 m/s 741 mmHg 97%
    08:00 +15°C° 0.2 mm 2 m/s 741 mmHg 96%
    09:00 +15°C° 0.2 mm 1 m/s 741 mmHg 95%
    10:00 +15°C° 0.2 mm 2 m/s 741 mmHg 93%
    11:00 +15°C° 0.2 mm 2 m/s 741 mmHg 91%
    12:00 +16°C° 0.2 mm 2 m/s 741 mmHg 89%
    13:00 +16°C° 0.2 mm 3 m/s 741 mmHg 85%
    14:00 +17°C° 0.2 mm 3 m/s 741 mmHg 81%
    15:00 +17°C° 0.2 mm 3 m/s 741 mmHg 77%
    16:00 +15°C° 0.3 mm 4 m/s 741 mmHg 80%
    17:00 +14°C° 0.3 mm 4 m/s 741 mmHg 82%
    18:00 +12°C° 0.3 mm 4 m/s 741 mmHg 84%
    19:00 +12°C° 0 mm 4 m/s 741 mmHg 85%
    20:00 +12°C° 0 mm 3 m/s 740 mmHg 85%
    21:00 +11°C° 0 mm 3 m/s 740 mmHg 85%
    22:00 +12°C° 0 mm 4 m/s 740 mmHg 84%
    23:00 +12°C° 0 mm 5 m/s 740 mmHg 83%

    Demain, 24 Septembre, Mardi

    Heure Température Précipitation Vent Pression Humidité
    00:00 +13°C° 0 mm 6 m/s 740 mmHg 83%
    01:00 +13°C° 0 mm 6 m/s 739 mmHg 83%
    02:00 +11°C° 0 mm 6 m/s 739 mmHg 83%
    03:00 +11°C° 0 mm 6 m/s 739 mmHg 84%
    04:00 +12°C° 0 mm 5 m/s 739 mmHg 85%
    05:00 +12°C° 0 mm 5 m/s 738 mmHg 86%
    06:00 +12°C° 0 mm 4 m/s 738 mmHg 87%
    07:00 +13°C° 0 mm 4 m/s 738 mmHg 87%
    08:00 +13°C° 0 mm 4 m/s 738 mmHg 87%
    09:00 +13°C° 0 mm 3 m/s 738 mmHg 87%
    10:00 +14°C° 0.1 mm 3 m/s 738 mmHg 85%
    11:00 +15°C° 0.1 mm 2 m/s 739 mmHg 84%
    12:00 +16°C° 0.1 mm 2 m/s 739 mmHg 82%
    13:00 +17°C° 0 mm 2 m/s 739 mmHg 80%
    14:00 +17°C° 0 mm 2 m/s 739 mmHg 77%
    15:00 +17°C° 0 mm 2 m/s 739 mmHg 75%
    16:00 +17°C° 0 mm 3 m/s 738 mmHg 79%
    17:00 +16°C° 0 mm 3 m/s 738 mmHg 84%
    18:00 +14°C° 0 mm 3 m/s 738 mmHg 88%
    19:00 +13°C° 0 mm 3 m/s 739 mmHg 89%
    20:00 +13°C° 0 mm 3 m/s 739 mmHg 91%
    21:00 +13°C° 0 mm 3 m/s 739 mmHg 92%
    22:00 +13°C° 0 mm 3 m/s 739 mmHg 93%
    23:00 +12°C° 0 mm 3 m/s 739 mmHg 93%

    Après-demain, 25 Septembre, Mercredi

    Heure Température Précipitation Vent Pression Humidité
    00:00 +12°C° 0 mm 3 m/s 739 mmHg 94%
    01:00 +12°C° 0 mm 3 m/s 739 mmHg 94%
    02:00 +12°C° 0 mm 3 m/s 739 mmHg 94%
    03:00 +12°C° 0 mm 3 m/s 739 mmHg 94%
    04:00 +12°C° 0 mm 3 m/s 738 mmHg 94%
    05:00 +13°C° 0 mm 2 m/s 738 mmHg 93%
    06:00 +13°C° 0 mm 2 m/s 738 mmHg 93%
    07:00 +14°C° 0 mm 2 m/s 738 mmHg 89%
    08:00 +15°C° 0 mm 2 m/s 738 mmHg 85%
    09:00 +16°C° 0 mm 3 m/s 738 mmHg 82%
    10:00 +17°C° 0 mm 3 m/s 738 mmHg 79%
    11:00 +17°C° 0 mm 3 m/s 738 mmHg 76%
    12:00 +18°C° 0 mm 4 m/s 738 mmHg 74%
    13:00 +18°C° 0.1 mm 4 m/s 738 mmHg 76%
    14:00 +17°C° 0.1 mm 4 m/s 738 mmHg 78%
    15:00 +17°C° 0.1 mm 4 m/s 737 mmHg 81%
    16:00 +15°C° 0.1 mm 5 m/s 737 mmHg 83%
    17:00 +14°C° 0.1 mm 5 m/s 736 mmHg 85%
    18:00 +14°C° 0.1 mm 5 m/s 736 mmHg 87%
    19:00 +13°C° 0.4 mm 5 m/s 736 mmHg 89%
    20:00 +13°C° 0.4 mm 5 m/s 736 mmHg 91%
    21:00 +13°C° 0.4 mm 5 m/s 736 mmHg 93%
    22:00 +13°C° 0.1 mm 5 m/s 735 mmHg 94%
    23:00 +13°C° 0.1 mm 4 m/s 735 mmHg 94%

    26 Septembre, Jeudi

    Heure Température Précipitation Vent Pression Humidité
    00:00 +13°C° 0.1 mm 4 m/s 735 mmHg 95%
    01:00 +13°C° 0.5 mm 4 m/s 734 mmHg 95%
    02:00 +13°C° 0.5 mm 4 m/s 734 mmHg 95%
    03:00 +13°C° 0.5 mm 4 m/s 733 mmHg 96%
    04:00 +13°C° 2.6 mm 4 m/s 733 mmHg 96%
    05:00 +12°C° 2.6 mm 5 m/s 732 mmHg 96%
    06:00 +12°C° 2.6 mm 5 m/s 732 mmHg 97%
    07:00 +11°C° 2.1 mm 6 m/s 732 mmHg 94%
    08:00 +11°C° 2.1 mm 6 m/s 732 mmHg 90%
    09:00 +10°C° 2.1 mm 7 m/s 732 mmHg 87%
    10:00 +11°C° 0 mm 7 m/s 733 mmHg 83%
    11:00 +12°C° 0 mm 7 m/s 733 mmHg 79%
    12:00 +14°C° 0 mm 7 m/s 734 mmHg 74%
    13:00 +12°C° 0.1 mm 7 m/s 734 mmHg 74%
    14:00 +12°C° 0.1 mm 7 m/s 734 mmHg 73%
    15:00 +12°C° 0.1 mm 7 m/s 734 mmHg 72%
    16:00 +12°C° 0.1 mm 7 m/s 734 mmHg 75%
    17:00 +11°C° 0.1 mm 6 m/s 734 mmHg 78%
    18:00 +11°C° 0.1 mm 6 m/s 734 mmHg 82%
    19:00 +10°C° 0.1 mm 6 m/s 734 mmHg 84%
    20:00 +10°C° 0.1 mm 6 m/s 734 mmHg 86%
    21:00 +9°C° 0.1 mm 7 m/s 735 mmHg 89%
    22:00 +9°C° 0.2 mm 7 m/s 735 mmHg 89%
    23:00 +10°C° 0.2 mm 7 m/s 734 mmHg 89%

    27 Septembre, Vendredi

    Heure Température Précipitation Vent Pression Humidité
    00:00 +10°C° 0.2 mm 6 m/s 734 mmHg 89%
    01:00 +10°C° 0.5 mm 7 m/s 734 mmHg 89%
    02:00 +10°C° 0.5 mm 7 m/s 734 mmHg 89%
    03:00 +10°C° 0.5 mm 7 m/s 734 mmHg 88%
    04:00 +10°C° 0.8 mm 6 m/s 734 mmHg 90%
    05:00 +9°C° 0.8 mm 6 m/s 733 mmHg 92%
    06:00 +9°C° 0.8 mm 5 m/s 733 mmHg 95%
    07:00 +9°C° 1.5 mm 6 m/s 733 mmHg 94%
    08:00 +9°C° 1.5 mm 6 m/s 733 mmHg 93%
    09:00 +9°C° 1.5 mm 7 m/s 733 mmHg 92%
    10:00 +10°C° 0.6 mm 6 m/s 733 mmHg 89%
    11:00 +10°C° 0.6 mm 6 m/s 733 mmHg 85%
    12:00 +12°C° 0.6 mm 5 m/s 733 mmHg 82%
    13:00 +12°C° 0.2 mm 4 m/s 733 mmHg 82%
    14:00 +12°C° 0.2 mm 3 m/s 732 mmHg 83%
    15:00 +13°C° 0.2 mm 2 m/s 732 mmHg 83%
    16:00 +12°C° 0.5 mm 2 m/s 732 mmHg 86%
    17:00 +12°C° 0.5 mm 2 m/s 732 mmHg 90%
    18:00 +11°C° 0.5 mm 1 m/s 732 mmHg 93%
    19:00 +10°C° 0.3 mm 2 m/s 733 mmHg 93%
    20:00 +10°C° 0.3 mm 2 m/s 733 mmHg 93%
    21:00 +10°C° 0.3 mm 2 m/s 733 mmHg 92%
    22:00 +10°C° 0.2 mm 2 m/s 734 mmHg 92%
    23:00 +10°C° 0.2 mm 2 m/s 734 mmHg 92%

    28 Septembre, Samedi

    Heure Température Précipitation Vent Pression Humidité
    00:00 +10°C° 0.2 mm 2 m/s 734 mmHg 92%
    01:00 +10°C° 0 mm 3 m/s 734 mmHg 92%
    02:00 +10°C° 0 mm 3 m/s 734 mmHg 92%
    03:00 +9°C° 0 mm 3 m/s 734 mmHg 91%
    04:00 +8°C° 0 mm 4 m/s 735 mmHg 93%
    05:00 +8°C° 0 mm 4 m/s 735 mmHg 94%
    06:00 +8°C° 0 mm 4 m/s 735 mmHg 95%
    07:00 +9°C° 0 mm 5 m/s 736 mmHg 92%
    08:00 +9°C° 0 mm 5 m/s 736 mmHg 90%
    09:00 +10°C° 0 mm 6 m/s 737 mmHg 87%
    10:00 +10°C° 0.2 mm 6 m/s 737 mmHg 86%
    11:00 +11°C° 0.2 mm 6 m/s 737 mmHg 85%
    12:00 +11°C° 0.2 mm 6 m/s 738 mmHg 84%
    13:00 +11°C° 0.5 mm 6 m/s 738 mmHg 84%
    14:00 +11°C° 0.5 mm 6 m/s 738 mmHg 84%
    15:00 +11°C° 0.5 mm 7 m/s 739 mmHg 85%
    16:00 +10°C° 0.2 mm 6 m/s 739 mmHg 87%
    17:00 +10°C° 0.2 mm 6 m/s 739 mmHg 88%
    18:00 +9°C° 0.2 mm 5 m/s 739 mmHg 90%
    19:00 +9°C° 0.3 mm 6 m/s 740 mmHg 91%
    20:00 +9°C° 0.3 mm 6 m/s 740 mmHg 91%
    21:00 +9°C° 0.3 mm 6 m/s 740 mmHg 91%
    22:00 +9°C° 0.1 mm 6 m/s 740 mmHg 91%
    23:00 +8°C° 0.1 mm 7 m/s 740 mmHg 91%
    Voir plus